This is the latest recevied weather packets stored in our database for station/object F4WDE-10. If no packets are shown the sender has not sent any weather packets the latest 10 day(s).
| Time | Temp. | Humidity | Pressure | Rain* | Wind** | Luminosity | Snow |
|---|---|---|---|---|---|---|---|
| 1777425290 | 15.56° C | 59% | 960 hPa | - | - | - | - |
| 1777424389 | 16.11° C | 66% | 960 hPa | - | - | - | - |
| 1777423488 | 15.56° C | 66% | 960 hPa | - | - | - | - |
| 1777422587 | 15.56° C | 67% | 960 hPa | - | - | - | - |
| 1777421686 | 16.11° C | 67% | 960 hPa | - | - | - | - |
| 1777420785 | 15.56° C | 68% | 960 hPa | - | - | - | - |
| 1777419884 | 15.56° C | 68% | 960 hPa | - | - | - | - |
| 1777418983 | 15.56° C | 77% | 960 hPa | - | - | - | - |
| 1777418082 | 15.56° C | 79% | 960 hPa | - | - | - | - |
| 1777417181 | 15.56° C | 69% | 960 hPa | - | - | - | - |
| 1777416280 | 16.67° C | 48% | 960 hPa | - | - | - | - |
| 1777415379 | 16.11° C | 42% | 960 hPa | - | - | - | - |
| 1777414478 | 16.67° C | 42% | 960 hPa | - | - | - | - |
| 1777413576 | 16.11° C | 51% | 960 hPa | - | - | - | - |
| 1777412675 | 16.67° C | 53% | 960 hPa | - | - | - | - |
| 1777411774 | 16.67° C | 57% | 960 hPa | - | - | - | - |
| 1777410873 | 16.67° C | 54% | 960 hPa | - | - | - | - |
| 1777409972 | 17.22° C | 56% | 960 hPa | - | - | - | - |
| 1777409071 | 17.22° C | 56% | 960 hPa | - | - | - | - |
| 1777408170 | 17.78° C | 54% | 960 hPa | - | - | - | - |
| 1777407269 | 17.22° C | 55% | 961 hPa | - | - | - | - |
| 1777406367 | 17.78° C | 62% | 961 hPa | - | - | - | - |
| 1777405466 | 17.78° C | 70% | 960 hPa | - | - | - | - |
| 1777404565 | 17.22° C | 80% | 960 hPa | - | - | - | - |
| 1777403664 | 17.22° C | 82% | 960 hPa | - | - | - | - |
* Rain since midnight (hover to see other rain measurements)
** Current wind speed in m/s (hover to see current wind gust speed)